Change the Weather History Date:

Wednesday, January 18, 2012

  Actual Average Record
Temperature  
Mean Temperature 24 °F -  
Max Temperature 26 °F 30 °F 54 °F (1973)
Min Temperature 21 °F 19 °F -2 °F (1997)
Degree Days  
Heating Degree Days 42    
Moisture  
Dew Point 14 °F    
Average Humidity 69    
Maximum Humidity 75    
Minimum Humidity 63    
Precipitation  
Precipitation 0.00 in - - ()
Sea Level Pressure  
Sea Level Pressure 30.16 in    
Wind  
Wind Speed 11 mph (SW)    
Max Wind Speed 15 mph    
Max Gust Speed 23 mph    
Visibility 10 miles    
Events Snow    
Averages and records for this station are not official NWS values.
T = Trace of Precipitation, MM = Missing Value Source: NWS Daily Summary

Daily Weather History Graph

Daily Weather History Graph

Search for Another Location

Airport or City:

Trip Planner

Search our weather history database for the weather conditions in past years. The results will help you decide how hot, cold, wet, or windy it might be!

Date:

Astronomy

Jan. 18, 2012 Rise Set
Actual Time 8:10 AM EST 5:42 PM EST
Civil Twilight 7:39 AM EST 6:12 PM EST
Nautical Twilight 7:05 AM EST 6:47 PM EST
Astronomical Twilight 6:31 AM EST 7:20 PM EST
Moon 3:39 AM EST (1/18) 1:19 PM EST (1/18)
Length of Visible Light 10h 33m
Length of Day
9h 31m
Waning Crescent, 25% of the Moon is Illuminated
Jan 18
Waning Crescent
Jan 23
New
Jan 30
First Quarter
Feb 7
Full
Feb 14
Last Quarter

Hourly Weather History & Observations

Time (EST) Temp. Windchill Dew Point Humidity Pressure Visibility Wind Dir Wind Speed Gust Speed Precip Events Conditions
12:04 AM 26.6 °F 14.7 °F 15.8 °F 64% 30.14 in 8.0 mi NW 15.0 mph 23.0 mph 0.00 in   Overcast
12:53 AM 25.0 °F 14.2 °F 17.1 °F 72% 30.19 in 4.0 mi WNW 11.5 mph 19.6 mph 0.00 in Snow Light Snow
1:23 AM 24.8 °F 14.6 °F 14.0 °F 64% 30.17 in 9.0 mi NW 10.4 mph 19.6 mph 0.00 in   Overcast
1:53 AM 24.1 °F 13.7 °F 14.0 °F 65% 30.20 in 10.0 mi NW 10.4 mph 19.6 mph 0.00 in   Overcast
2:53 AM 24.1 °F 15.2 °F 14.0 °F 65% 30.22 in 10.0 mi NW 8.1 mph 16.1 mph N/A   Overcast
3:53 AM 23.0 °F 12.4 °F 12.9 °F 65% 30.24 in 10.0 mi WNW 10.4 mph 17.3 mph N/A   Overcast
4:53 AM 23.0 °F 12.4 °F 14.0 °F 68% 30.24 in 10.0 mi WNW 10.4 mph - N/A   Overcast
5:53 AM 23.0 °F 11.7 °F 14.0 °F 68% 30.25 in 10.0 mi West 11.5 mph 16.1 mph N/A   Overcast
6:53 AM 21.9 °F 13.4 °F 14.0 °F 72% 30.25 in 10.0 mi WNW 6.9 mph - N/A   Overcast
7:53 AM 21.9 °F 12.5 °F 14.0 °F 72% 30.26 in 10.0 mi West 8.1 mph - N/A   Overcast
8:53 AM 21.9 °F 12.5 °F 12.9 °F 68% 30.28 in 10.0 mi WSW 8.1 mph - N/A   Overcast
9:53 AM 21.9 °F 13.4 °F 14.0 °F 72% 30.29 in 10.0 mi SW 6.9 mph - N/A   Overcast
10:53 AM 21.9 °F 12.5 °F 12.9 °F 68% 30.28 in 10.0 mi SW 8.1 mph - N/A   Overcast
11:53 AM 21.9 °F 11.0 °F 15.1 °F 75% 30.27 in 10.0 mi WSW 10.4 mph 17.3 mph N/A   Overcast
12:40 PM 21.2 °F 9.5 °F 14.0 °F 74% 30.21 in 10.0 mi WSW 11.5 mph - N/A   Partly Cloudy
12:53 PM 21.9 °F 9.8 °F 12.9 °F 68% 30.23 in 10.0 mi SW 12.7 mph - N/A   Partly Cloudy
1:53 PM 23.0 °F 12.4 °F 12.0 °F 63% 30.19 in 10.0 mi South 10.4 mph - N/A   Partly Cloudy
2:53 PM 21.9 °F 11.0 °F 10.9 °F 63% 30.15 in 10.0 mi South 10.4 mph - N/A   Clear
3:53 PM 23.0 °F 13.1 °F 12.0 °F 63% 30.15 in 10.0 mi South 9.2 mph - N/A   Clear
4:53 PM 21.9 °F 11.7 °F 12.0 °F 66% 30.14 in 10.0 mi South 9.2 mph 16.1 mph N/A   Clear
5:53 PM 21.0 °F 10.6 °F 12.9 °F 71% 30.10 in 10.0 mi SSE 9.2 mph - N/A   Clear
6:53 PM 21.0 °F 9.9 °F 12.9 °F 71% 30.07 in 10.0 mi SSE 10.4 mph - N/A   Mostly Cloudy
7:53 PM 21.0 °F 8.1 °F 14.0 °F 74% 30.04 in 10.0 mi SSE 13.8 mph - N/A   Overcast
8:53 PM 21.9 °F 10.4 °F 15.1 °F 75% 30.02 in 10.0 mi South 11.5 mph - N/A   Overcast
9:53 PM 23.0 °F 10.1 °F 16.0 °F 74% 29.96 in 10.0 mi South 15.0 mph - N/A   Partly Cloudy
10:53 PM 23.0 °F 11.1 °F 16.0 °F 74% 29.96 in 10.0 mi South 12.7 mph 19.6 mph N/A   Clear
11:53 PM 24.1 °F 12.0 °F 16.0 °F 71% 29.95 in 10.0 mi South 13.8 mph 21.9 mph N/A   Clear